Voltar ao catálogo

COSMOS 2114

AtivoMilitarPO
NORAD 21028·PAYLOAD·🇷🇺 Russia

Lançado Dec 22, 1990 de Plesetsk Cosmodrome

Loading…

Próximas Passagens (próximas 24 horas)

TLE

AtualizadoSource: Space-Track

Época: Sep 14, 2026, 04:22 UTC

1 21028U 90114A   26257.18199187  .00000027  00000-0  92541-4 0  9998
2 21028  82.5818 176.8853 0006323  87.1180  76.8405 12.62805111646625

Acompanhe COSMOS 2114 em tempo real com AllMySat

Download on the App Store